User: anonymous   Login
Location: Anciles
(42.5833°N, 0.5167°E)
Time: 08:25:37
(UTC+00:00)
Language:

Cosmos 2026 Rocket - Orbit

View from above orbital plane
View from above orbital plane
View from above satellite
View from above satellite

Ground track
Ground track

The orbit data is extracted from the following two-line orbital elements,

1 20046U 89042B   20056.19058065  .00000103  00000-0  86669-4 0  9995
2 20046  82.9359 290.5819 0041667 190.4195 169.6104 13.78173561544649
Epoch (UTC): 25 February 2020 04:34:26
Eccentricity: 0.0041667
inclination: 82.9359°
perigee height: 940 km
apogee height: 1001 km
right ascension of ascending node: 290.5819°
argument of perigee: 190.4195°
revolutions per day: 13.78173561
mean anomaly at epoch: 169.6104°
orbit number at epoch: 54464

The dashed part of the orbit path shows where the satellite is in the earth's shadow,  

DLR